Estación de San Pedro
Ultimos registro cada 15 minutos 95
| N° | Estación | Fecha / Hora | Temperatura | Humedad | Lluvia | Velocidad | Dirección | Radiación | Presion |
| 95 | San Pedro | 09-05-2026 23:30 | 4,6 | 96,1 | 0 | 0 | 138 | 0,6 | 999,1 |
| 94 | San Pedro | 09-05-2026 23:15 | 5,1 | 92,7 | 0 | 0 | 111 | 0,6 | 999,3 |
| 93 | San Pedro | 09-05-2026 23:00 | 6,2 | 93,5 | 0 | 0 | 95 | 0,6 | 999,2 |
| 92 | San Pedro | 09-05-2026 22:45 | 5,8 | 93,5 | 0 | 0 | 95 | 0,6 | 999,2 |
| 91 | San Pedro | 09-05-2026 22:30 | 6,3 | 93,7 | 0 | 0 | 97 | 0,6 | 999,2 |
| 90 | San Pedro | 09-05-2026 22:15 | 6,9 | 93,6 | 0 | 0 | 131 | 0,6 | 999,3 |
| 89 | San Pedro | 09-05-2026 22:00 | 6,4 | 91,6 | 0 | 0 | 218 | 0,6 | 999,2 |
| 88 | San Pedro | 09-05-2026 21:45 | 8 | 86,9 | 0 | 0 | 211 | 0,6 | 999,1 |
| 87 | San Pedro | 09-05-2026 21:30 | 9 | 84,9 | 0 | 0 | 213 | 0,6 | 999 |
| 86 | San Pedro | 09-05-2026 21:15 | 7,6 | 88,1 | 0 | 0 | 248 | 0,6 | 998,9 |
| 85 | San Pedro | 09-05-2026 21:00 | 8,8 | 86,5 | 0 | 0 | 239 | 0,6 | 999,1 |
| 84 | San Pedro | 09-05-2026 20:45 | 9,7 | 82,9 | 0 | 0 | 66 | 0,6 | 998,9 |
| 83 | San Pedro | 09-05-2026 20:30 | 11,2 | 77,5 | 0 | 0 | 125 | 0,6 | 998,8 |
| 82 | San Pedro | 09-05-2026 20:15 | 12,6 | 65,3 | 0 | 0 | 220 | 0,6 | 998,9 |
| 81 | San Pedro | 09-05-2026 20:00 | 13,1 | 62,7 | 0 | 0 | 25 | 0,6 | 998,8 |
| 80 | San Pedro | 09-05-2026 19:45 | 15,3 | 52,6 | 0 | 0,5 | 39 | 0,6 | 998,9 |
| 79 | San Pedro | 09-05-2026 19:30 | 15,6 | 53,7 | 0 | 0 | 7 | 0,6 | 998,7 |
| 78 | San Pedro | 09-05-2026 19:15 | 15,2 | 56,1 | 0 | 0 | 292 | 0,6 | 998,6 |
| 77 | San Pedro | 09-05-2026 19:00 | 16,3 | 52 | 0 | 0 | 334 | 0,6 | 998,4 |
| 76 | San Pedro | 09-05-2026 18:45 | 15,7 | 56,5 | 0 | 0 | 341 | 0,6 | 998,5 |
| 75 | San Pedro | 09-05-2026 18:30 | 15,7 | 59,3 | 0 | 0 | 21 | 0,6 | 998,4 |
| 74 | San Pedro | 09-05-2026 18:15 | 16,1 | 59,3 | 0 | 0 | 53 | 0,6 | 998,3 |
| 73 | San Pedro | 09-05-2026 18:00 | 16,9 | 57,1 | 0 | 0 | 39 | 3,1 | 998,2 |
| 72 | San Pedro | 09-05-2026 17:45 | 18,1 | 53,5 | 0 | 0 | 34 | 20,6 | 998,2 |
| 71 | San Pedro | 09-05-2026 17:30 | 19,6 | 48,7 | 0 | 0 | 312 | 60,6 | 998,2 |
| 70 | San Pedro | 09-05-2026 17:15 | 20,1 | 48,3 | 0 | 0 | 302 | 115,6 | 998 |
| 69 | San Pedro | 09-05-2026 17:00 | 21,3 | 44,5 | 0 | 0 | 323 | 164,4 | 997,9 |
| 68 | San Pedro | 09-05-2026 16:45 | 21,6 | 43,4 | 0 | 0 | 288 | 204,4 | 998,1 |
| 67 | San Pedro | 09-05-2026 16:30 | 21,2 | 44 | 0 | 0,5 | 274 | 250,6 | 998,1 |
| 66 | San Pedro | 09-05-2026 16:15 | 21,7 | 44 | 0 | 0,5 | 263 | 291,9 | 997,9 |
| 65 | San Pedro | 09-05-2026 16:00 | 22,5 | 42,3 | 0 | 0,5 | 263 | 334,4 | 998,1 |
| 64 | San Pedro | 09-05-2026 15:45 | 22,9 | 41,4 | 0 | 0 | 317 | 373,1 | 998,2 |
| 63 | San Pedro | 09-05-2026 15:30 | 22 | 40,9 | 0 | 0 | 293 | 414,4 | 998,4 |
| 62 | San Pedro | 09-05-2026 15:15 | 22,2 | 37,7 | 0 | 0,5 | 279 | 453,1 | 998,5 |
| 61 | San Pedro | 09-05-2026 15:00 | 21,3 | 39,6 | 0 | 0,5 | 299 | 480,6 | 998,7 |
| 60 | San Pedro | 09-05-2026 14:45 | 21,7 | 42,8 | 0 | 0 | 330 | 510,6 | 998,7 |
| 59 | San Pedro | 09-05-2026 14:30 | 21,5 | 44,9 | 0 | 0 | 293 | 538,1 | 998,9 |
| 58 | San Pedro | 09-05-2026 14:15 | 20,6 | 45,6 | 0 | 0 | 347 | 556,9 | 999 |
| 57 | San Pedro | 09-05-2026 14:00 | 20,8 | 43,7 | 0 | 0 | 277 | 581,9 | 999,1 |
| 56 | San Pedro | 09-05-2026 13:45 | 19,7 | 47,4 | 0 | 0 | 302 | 599,4 | 999,3 |
| 55 | San Pedro | 09-05-2026 13:30 | 18,5 | 49,7 | 0 | 0,5 | 257 | 609,4 | 999,4 |
| 54 | San Pedro | 09-05-2026 13:15 | 18,6 | 51,4 | 0 | 0 | 271 | 618,1 | 999,6 |
| 53 | San Pedro | 09-05-2026 13:00 | 18,2 | 54,9 | 0 | 0,5 | 261 | 624,4 | 999,8 |
| 52 | San Pedro | 09-05-2026 12:45 | 17,5 | 55,6 | 0 | 0,5 | 261 | 626,9 | 1000 |
| 51 | San Pedro | 09-05-2026 12:30 | 16,4 | 58,2 | 0 | 1 | 248 | 628,1 | 1000,3 |
| 50 | San Pedro | 09-05-2026 12:15 | 16,1 | 59 | 0 | 1 | 247 | 620,6 | 1000,3 |
| 49 | San Pedro | 09-05-2026 12:00 | 16,7 | 54,5 | 0 | 0,5 | 260 | 614,4 | 1000,4 |
| 48 | San Pedro | 09-05-2026 11:45 | 16,2 | 56,3 | 0 | 0,5 | 260 | 603,1 | 1000,4 |
| 47 | San Pedro | 09-05-2026 11:30 | 15,8 | 55,2 | 0 | 0 | 254 | 584,4 | 1000,6 |
| 46 | San Pedro | 09-05-2026 11:15 | 15,4 | 63,6 | 0 | 0,5 | 247 | 565,6 | 1000,6 |
| 45 | San Pedro | 09-05-2026 11:00 | 13,8 | 67,7 | 0 | 1,5 | 241 | 538,1 | 1000,8 |
| 44 | San Pedro | 09-05-2026 10:45 | 14,3 | 67,7 | 0 | 0 | 310 | 514,4 | 1000,8 |
| 43 | San Pedro | 09-05-2026 10:30 | 14,6 | 68,9 | 0 | 0 | 53 | 480,6 | 1000,8 |
| 42 | San Pedro | 09-05-2026 10:15 | 15,1 | 69,2 | 0 | 0 | 55 | 451,9 | 1000,8 |
| 41 | San Pedro | 09-05-2026 10:00 | 13,5 | 72,2 | 0 | 0 | 65 | 414,4 | 1000,9 |
| 40 | San Pedro | 09-05-2026 09:45 | 14,9 | 68,2 | 0 | 0 | 20 | 378,1 | 1001 |
| 39 | San Pedro | 09-05-2026 09:30 | 13,3 | 72,2 | 0 | 0 | 58 | 338,1 | 1001,1 |
| 38 | San Pedro | 09-05-2026 09:15 | 12,8 | 73,5 | 0 | 0 | 42 | 298,1 | 1001,2 |
| 37 | San Pedro | 09-05-2026 09:00 | 12,6 | 76,8 | 0 | 0 | 7 | 251,9 | 1001,3 |
| 36 | San Pedro | 09-05-2026 08:45 | 11,3 | 81,9 | 0 | 0,5 | 59 | 208,1 | 1001,3 |
| 35 | San Pedro | 09-05-2026 08:30 | 10,8 | 84 | 0 | 0,5 | 65 | 181,9 | 1001,2 |
| 34 | San Pedro | 09-05-2026 08:15 | 10,5 | 85,5 | 0 | 0,5 | 45 | 119,4 | 1001,1 |
| 33 | San Pedro | 09-05-2026 08:00 | 9,9 | 88,6 | 0 | 0 | 70 | 78,1 | 1001,3 |
| 32 | San Pedro | 09-05-2026 07:45 | 8,9 | 92 | 0 | 0 | 38 | 18,1 | 1001,3 |
| 31 | San Pedro | 09-05-2026 07:30 | 9,1 | 91,8 | 0 | 0 | 46 | 4,4 | 1001,2 |
| 30 | San Pedro | 09-05-2026 07:15 | 8,5 | 92,9 | 0 | 0,5 | 38 | 0,6 | 1001,2 |
| 29 | San Pedro | 09-05-2026 07:00 | 9,4 | 90,6 | 0 | 1 | 31 | 0,6 | 1001,2 |
| 28 | San Pedro | 09-05-2026 06:45 | 9,3 | 90,9 | 0 | 0,5 | 27 | 0,6 | 1001,2 |
| 27 | San Pedro | 09-05-2026 06:30 | 9,3 | 91,8 | 0 | 0 | 28 | 0,6 | 1001,4 |
| 26 | San Pedro | 09-05-2026 06:15 | 9,5 | 91,8 | 0 | 0 | 314 | 0,6 | 1001,2 |
| 25 | San Pedro | 09-05-2026 06:00 | 9,8 | 91,2 | 0 | 0 | 46 | 0,6 | 1001,2 |
| 24 | San Pedro | 09-05-2026 05:45 | 9,9 | 90,8 | 0 | 1 | 59 | 0,6 | 1001,2 |
| 23 | San Pedro | 09-05-2026 05:30 | 9,7 | 91,2 | 0 | 1 | 65 | 0,6 | 1001,1 |
| 22 | San Pedro | 09-05-2026 05:15 | 9,3 | 91,9 | 0 | 0,5 | 76 | 0,6 | 1001 |
| 21 | San Pedro | 09-05-2026 05:00 | 9,4 | 91,4 | 0 | 0 | 58 | 0,6 | 1001,1 |
| 20 | San Pedro | 09-05-2026 04:45 | 9,3 | 91,9 | 0 | 0 | 45 | 0,6 | 1001,1 |
| 19 | San Pedro | 09-05-2026 04:30 | 9,8 | 89,9 | 0 | 0,5 | 41 | 0,6 | 1001,2 |
| 18 | San Pedro | 09-05-2026 04:15 | 9,9 | 89 | 0 | 0,5 | 65 | 0,6 | 1001,3 |
| 17 | San Pedro | 09-05-2026 04:00 | 10,4 | 87,5 | 0 | 1 | 324 | 0,6 | 1001,3 |
| 16 | San Pedro | 09-05-2026 03:45 | 10 | 90,2 | 0 | 0 | 14 | 0,6 | 1001,1 |
| 15 | San Pedro | 09-05-2026 03:30 | 9,4 | 91,3 | 0 | 0 | 358 | 0,6 | 1001,3 |
| 14 | San Pedro | 09-05-2026 03:15 | 10 | 89,6 | 0 | 0,5 | 351 | 0,6 | 1001,2 |
| 13 | San Pedro | 09-05-2026 03:00 | 10,5 | 87,5 | 0 | 0,5 | 29 | 0,6 | 1001,4 |
| 12 | San Pedro | 09-05-2026 02:45 | 10,4 | 88,7 | 0 | 0,5 | 73 | 0,6 | 1001,6 |
| 11 | San Pedro | 09-05-2026 02:30 | 10,5 | 88,2 | 0 | 0 | 44 | 0,6 | 1001,7 |
| 10 | San Pedro | 09-05-2026 02:15 | 10,4 | 88,9 | 0 | 0,5 | 69 | 0,6 | 1001,8 |
| 9 | San Pedro | 09-05-2026 02:00 | 10,4 | 89,4 | 0 | 0,5 | 60 | 0,6 | 1001,7 |
| 8 | San Pedro | 09-05-2026 01:45 | 8,9 | 94,8 | 0 | 0 | 24 | 0,6 | 1001,6 |
| 7 | San Pedro | 09-05-2026 01:30 | 9,6 | 92 | 0 | 0 | 268 | 0,6 | 1001,7 |
| 6 | San Pedro | 09-05-2026 01:15 | 10,8 | 88,2 | 0 | 0,5 | 52 | 0,6 | 1001,8 |
| 5 | San Pedro | 09-05-2026 01:00 | 10,5 | 91,7 | 0 | 0 | 13 | 0,6 | 1001,8 |
| 4 | San Pedro | 09-05-2026 00:45 | 8,8 | 93,6 | 0 | 0 | 357 | 0,6 | 1001,8 |
| 3 | San Pedro | 09-05-2026 00:30 | 9,8 | 88,9 | 0 | 0 | 87 | 0,6 | 1001,9 |
| 2 | San Pedro | 09-05-2026 00:15 | 10,2 | 90,5 | 0 | 0 | 95 | 0,6 | 1001,9 |
| 1 | San Pedro | 09-05-2026 00:00 | 10,7 | 89,4 | 0 | 0 | 326 | 0,6 | 1002 |